User: anonymous   Login
Location: Acheville
(50.3840°N, 2.8827°E)
Time: 10:11:35
(UTC+00:00)
Language:

Cosmos 1602 Rocket - Orbit

View from above orbital plane
View from above orbital plane
View from above satellite
View from above satellite

Ground track
Ground track

The orbit data is extracted from the following two-line orbital elements,

1 15332U 84105B   22017.87335645  .00000228  00000-0  24731-4 0  9998
2 15332  82.5332  61.5260 0019730 241.8875 291.1544 14.83508890 15002
Epoch (UTC): 17 January 2022 20:57:37
Eccentricity: 0.0019730
inclination: 82.5332°
perigee height: 604 km
apogee height: 632 km
right ascension of ascending node: 61.5260°
argument of perigee: 241.8875°
revolutions per day: 14.83508890
mean anomaly at epoch: 291.1544°
orbit number at epoch: 1500

The dashed part of the orbit path shows where the satellite is in the earth's shadow,  

DLR